AirNav   TITAN Aviation Fuels
 
 553 users online  

KEMT San Gabriel Valley Airport
El Monte, California, USA

GOING TO EL MONTE?


FAA INFORMATION EFFECTIVE 03 NOVEMBER 2022

Location

FAA Identifier: EMT
Lat/Long: 34-05-09.6320N 118-02-05.4430W
34-05.160533N 118-02.090717W
34.0860089,-118.0348453
(estimated)
Elevation: 295.6 ft. / 90.1 m (surveyed)
Variation: 14E (1985)
From city: 1 mile N of EL MONTE, CA
Time zone: UTC -8 (UTC -7 during Daylight Saving Time)
Zip code: 91731

Airport Operations

Airport use: Open to the public
Activation date: 04/1944
Control tower: yes
ARTCC: LOS ANGELES CENTER
FSS: RIVERSIDE FLIGHT SERVICE STATION
NOTAMs facility: EMT (NOTAM-D service available)
Attendance: CONTINUOUS
Wind indicator: lighted
Segmented circle: yes
Lights: WHEN ATCT CLSD ACTVT MIRL RY 01/19, REIL RY 19, PAPI RYS 01 AND 19 - CTAF.
Beacon: white-green (lighted land airport)
Operates sunset to sunrise.
Taxiway lights: CNTR TWY LGTS ONLY.

Airport Communications

CTAF: 121.2
UNICOM: 122.95
ATIS: 118.75
WX AWOS-3PT: 118.75 ((626) 444-1107)
EL MONTE GROUND: 125.9 [0800-2000]
EL MONTE TOWER: 121.2 [0800-2000]
SOCAL APPROACH: 125.5 ;SW-NORTH
SOCAL DEPARTURE: 125.5 ;SW-NORTH
CLASS C: 127.0 ;NORTH-NE
IC: 125.5 ;SW-NORTH
WX AWOS-3PT at POC (13 nm E): 124.4 (909-596-1523)
WX ASOS at FUL (13 nm S): PHONE 714-870-1372
WX AWOS-3PT at CPM (16 nm SW): 127.150 (310-631-3022)
WX ASOS at LGB (17 nm S): PHONE 562-424-0572
WX AWOS-3P at CCB (17 nm E): 119.525 (909-985-4731)
WX ASOS at BUR (17 nm NW): PHONE 818-841-1384
WX ASOS at HHR (18 nm SW): PHONE 310-973-8930
  • DRG HRS EL MONTE TWR IS OPNL SOCAL APP PRVDS DEP CTL SVC ON 125.5; OTR HRS DEP CTL ON 121.2.

Nearby radio navigation aids

VOR radial/distance  VOR name  Freq  Var
POMr257/12.3POMONA VORTAC110.4015E
SLIr348/18.2SEAL BEACH VORTAC115.7015E
SMOr063/21.5SANTA MONICA VOR/DME110.8015E
LAXr050/21.8LOS ANGELES VORTAC113.6015E
VNYr095/24.1VAN NUYS VOR/DME113.1015E
PDZr277/27.1PARADISE VORTAC112.2015E
ELBr314/28.9EL TORO VOR/DME117.2014E
RALr271/(30.1)RIVERSIDE VOR108.6014E
PMDr162/32.8PALMDALE VORTAC114.5015E

Airport Services

Fuel available: 100LL JET-A
Parking: tiedowns
Airframe service: MAJOR
Powerplant service: MAJOR
Bulk oxygen: NONE

Runway Information

Runway 1/19

Dimensions: 3995 x 75 ft. / 1218 x 23 m
Surface: asphalt/aggregate friction seal coat, in good condition
Weight bearing capacity: 
Single wheel: 12.5
Runway edge lights: medium intensity
RUNWAY 1  RUNWAY 19
Latitude: 34-04.862517N34-05.457367N
Longitude: 118-02.260400W118-01.920483W
Elevation: 281.8 ft.295.6 ft.
Traffic pattern: leftright
Runway heading: 011 magnetic, 025 true191 magnetic, 205 true
Displaced threshold: 290 ft.641 ft.
Declared distances: TORA:3504 TODA:3995 ASDA:3755 LDA:3465TORA:3995 TODA:3995 ASDA:3995 LDA:3354
Markings: basic, in good conditionbasic, in good condition
Visual slope indicator: 2-light PAPI on left (4.57 degrees glide path)2-light PAPI on right (4.50 degrees glide path)
Runway end identifier lights: noyes
Touchdown point: yes, no lightsyes, no lights
Obstructions: 18 ft. pole, 350 ft. from runway, 85 ft. right of centerline, 8:1 slope to clear
RWY 01 +6 FT FENCE 120 FT R OF CNTRLN; +6 FT FENCE 120 FT LEFT & PARALLEL TO CNTRLN 0-200 FT FM END OF RY.
30 ft. pole, 800 ft. from runway, 205 ft. left of centerline, 20:1 slope to clear
+2 FT FENCE 75 FT RIGHT OF CNTRLN AT THR TO 0 FT RIGHT OF CNTRLN AT 200 FT.

Airport Ownership and Management from official FAA records

Ownership: Publicly-owned
Owner: CO OF LOS ANGELES
P O BOX 1460
ALHAMBRA, CA 91803-1331
Phone 626-300-4600
LA COUNTY CTC: PAUL MASELBAS, 626-300-4600 X4615.
Manager: DAVID PRICE
4233 SANTA ANITA AVE
EL MONTE, CA 91731
Phone 626-448-6129

Airport Operational Statistics

Aircraft based on the field: 93
Single engine airplanes: 87
Multi engine airplanes: 1
Helicopters: 5
    
Aircraft operations: avg 240/day *
64% local general aviation
35% transient general aviation
<1% air taxi
<1% military
<1% commercial
* for 12-month period ending 31 December 2021

Additional Remarks

REMAIN OVER PAVED CHANNEL ON CLIMB OUT TO SOUTH AND TO NORTH.
HEAVY BIRD ACTIVITY ON & INVOF ARPT.
LGTD WATER TWR 1 MI W-SW OF ARPT.
NOISE ABATEMENT PROCEDURES IN EFFECT, CTC ARPT MANAGER FOR DETAILS.
FOR CLNC DEL WHEN ATCT CLSD CALL SOCAL APP (800) 448-3724.

Instrument Procedures

NOTE: All procedures below are presented as PDF files. If you need a reader for these files, you should download the free Adobe Reader.

NOT FOR NAVIGATION. Please procure official charts for flight.
FAA instrument procedures published for use from 03 November 2022 at 0901Z to 01 December 2022 at 0900Z.

 
STARs - Standard Terminal Arrivals
SETER FIVE   download (268KB)
ZIGGY SEVEN   2 pages: [1] [2] (444KB)
 
IAPs - Instrument Approach Procedures
RNAV (GPS)-B **CHANGED**   download (216KB)
VOR-A **CHANGED**   download (312KB)
NOTE: Special Alternate Minimums apply   download (117KB)
NOTE: Special Take-Off Minimums/Departure Procedures apply   download (236KB)

Other nearby airports with instrument procedures:

KPOC - Brackett Field Airport (13 nm E)
KFUL - Fullerton Municipal Airport (13 nm S)
KLGB - Long Beach Airport (Daugherty Field) (17 nm S)
KCCB - Cable Airport (17 nm E)
KBUR - Bob Hope Airport (17 nm NW)
KSLI - Los Alamitos Army Airfield (18 nm S)
KHHR - Jack Northrop Field/Hawthorne Municipal Airport (18 nm SW)
 
Loc | Ops | Rwys | IFR | FBO | Links
Com | Nav | Svcs | Stats | Notes

Luxivair - San Bernardino International Airport
 
Area around KEMT (San Gabriel Valley Airport)
 
Road maps at: MapQuest Bing Google
 
Aerial photo
WARNING: Photo may not be current or correct
Aerial photo of KEMT (San Gabriel Valley Airport)
Photo by Mark Holtzman
West Coast Aerial Photography
Photo taken 01-May-2019
looking northwest.

Do you have a better or more recent aerial photo of San Gabriel Valley Airport that you would like to share? If so, please send us your photo.

 
Sectional chart

 
Airport diagram
CAUTION: Diagram may not be current
Diagram of KEMT (San Gabriel Valley Airport)
Download PDF
of official airport diagram from the FAA

 
Airport distance calculator
Flying to San Gabriel Valley Airport? Find the distance to fly.

From to KEMT

Sunrise and sunset
Times for 27-Nov-2022
 Local
(UTC-8)
 Zulu
(UTC)
Morning civil twilight06:1014:10
Sunrise06:3714:37
Sunset16:4300:43
Evening civil twilight17:1001:10

Current date and time
Zulu (UTC)  27-Nov-2022 09:12:50
Local (UTC-8)  27-Nov-2022 01:12:50
 
METAR
KEMT 270247Z 00000KT 10SM CLR 15/06 A3004
KCQT 
10nm W 
270847Z AUTO 00000KT 8SM FEW006 12/10 A3006 RMK AO2 SLP178 T01220100 58001
KPOC 
13nm E 
270447Z 00000KT 10SM CLR A3007 RMK LAST
KFUL 
13nm S 
270853Z AUTO 09003KT 10SM CLR 11/07 A3005 RMK AO2 SLP175 T01060067 58001
KLGB 
17nm S 
270853Z AUTO 00000KT 5SM BR BKN003 11/09 A3006 RMK AO2 SLP178 T01110089 50002
KCCB 
17nm E 
119.525 909-985-4731
270850Z AUTO 36004KT 10SM CLR 11/M03 A3006 RMK AO2
KBUR 
18nm NW 
270853Z 00000KT 10SM CLR 09/04 A3005 RMK AO2 SLP168 T00940044 58003 $
KHHR 
18nm SW 
270853Z AUTO 00000KT 6SM HZ OVC003 13/11 A3006 RMK AO2 SLP178 T01330106 50000
KSLI 
19nm S 
270855Z AUTO 00000KT 10SM CLR 09/08 A3003 RMK AO2 SLP172 T00910080 50001 TSNO $
KLAX 
20nm SW 
270853Z 07004KT 5SM BR SCT002 13/12 A3006 RMK AO2 SLP176 T01280117 58001 $
TAF
KLGB 
17nm S 
270739Z 2708/2806 VRB03KT 5SM BR SCT250 FM271000 00000KT 1/2SM FG OVC002 FM271400 VRB03KT 6SM BR SCT004 SCT250 FM271800 18006KT P6SM SCT250 FM280200 29006KT P6SM SCT250
KBUR 
18nm NW 
270521Z 2706/2806 VRB03KT P6SM SCT250 FM272200 17007KT P6SM SCT250 FM280200 VRB03KT P6SM SCT250
KSLI 
19nm S 
270502Z 2705/2811 VRB06KT 9999 SKC QNH2993INS TX19/2800Z TN09/2715Z
KLAX 
20nm SW 
270831Z 2709/2812 00000KT 6SM BR VCFG SCT002 TEMPO 2709/2713 2SM BR OVC004 FM271600 25006KT P6SM SCT250 FM272000 26010KT P6SM SCT250 FM280300 VRB03KT P6SM SCT250 FM280800 VRB03KT 3SM BR BKN006
KSMO 
21nm W 
270521Z 2706/2806 VRB03KT P6SM SCT250 FM272100 24008KT P6SM SCT250 FM280200 VRB03KT P6SM SCT250
NOTAMs
Click for the latest NOTAMs
NOTAMs are issued by the DoD/FAA and will open in a separate window not controlled by AirNav.

 

 
 

FBO, Fuel Providers, and Aircraft Ground Support

  
 Business Name 
 
 Contact 
 
 Services / Description 
 
Fuel Prices
 
Comments
  
 Billion Air Aviation, Inc.
626-825-1661
626-523-9368
[web site]
[email]
Aviation fuel, Aircraft ground handling, Aircraft parking (ramp or tiedown), Hangars, Hangar leasing / sales, Passenger terminal and lounge, ...
 
EPIC Card   Enterprise Rent-A-Car   Hertz  
 
More info about Billion Air Aviation, Inc.
EPIC
100LL Jet A
FS $6.99 $6.39 
 Updated 23-Nov-2022
 
   1 read write
LA County Aviation 626-695-2585
no information available

If you are affiliated with LA County Aviation and would like to show here your services, contact info, web link, logo, and more, click here
100LL Jet A
FS $6.72 $6.24 
SS $6.42 --- 
 Updated 23-Nov-2022
 
   write
FS=Full service
SS=Self service
Update Fuel Prices
 

Would you like to see your business listed on this page?

 If your business provides an interesting product or service to pilots, flight crews, aircraft, or users of the San Gabriel Valley Airport, you should consider listing it here.  To start the listing process, click on the button below
 
Add a business
 

Other Pages about San Gabriel Valley Airport

aacit.caltech.edu/...
 
Update a link
 
Copyright © AirNav, LLC. All rights reserved. Privacy Policy  Contact